Location: Brahman Valley
(40.6513°N, 111.8855°W)
Time: 21:21:27
(UTC+00:00)

Vanguard 2 - Pass Details

Date: 16 May 2021
Orbit: 552 x 2937 km, 32.9° (Epoch: 14 June)

Event Time Altitude Azimuth Distance (km) Brightness Sun altitude
Rises 19:17:39 0° 275° (W) 6,230 12.1 68.6°
Reaches altitude 10° 19:23:10 10° 261° (W) 5,494 12.1 68.6°
Maximum altitude 19:33:54 21° 221° (SW) 4,900 12.2 68.5°
Drops below altitude 10° 19:45:00 10° 182° (S) 5,629 12.4 68.2°
Sets 19:50:54 0° 167° (SSE) 6,416 12.5 67.9°
